Location: Unspecified
(42.3650°N, 71.1030°W)
Time: 23:11:59
(UTC+00:00)

Cosmos 1842 Rocket - Pass Details

Date: 02 March 2024
Orbit: 603 x 629 km, 82.5° (Epoch: 15 April)

Event Time Altitude Azimuth Distance (km) Brightness Sun altitude
Rises 23:44:36 0° 347° (NNW) 2,872 7.2 -13.4°
Reaches altitude 10° 23:46:51 10° 343° (NNW) 1,967 6.4 -13.8°
Maximum altitude 23:51:06 55° 266° (W) 738 4.3 -14.6°
Drops below altitude 10° 23:55:20 10° 189° (S) 1,965 6.2 -15.4°
Sets 23:57:35 0° 185° (S) 2,869 7.0 -15.8°
